Погода в Бамбуи

Бразилия     20°05′20″S   46°04′08″W
темп.,
°C
ветер,
м/с
пор.,
м/с
влажн.,
%
обл.,
%
осадки,
мм/ч
давл.,
гПа
погр.,
м
27 февраля, сб
сб2700:00+18ю1297100 0.9 1015132
03:00+18юв1297100 1.1 101381
06:00+19всв1499100 0.1 1014223
09:00+19всв1397100 1.9 1016216
12:00+22св5789100 3.3 1015721
15:00+23св578498 6.6 1013850
18:00+20св379294 1.4 1013385
21:00+18ссв129792 1.6 101429
28 февраля, вс
вс2800:00+19в1296100 0.0 101543
03:00+18вюв1295100 0.2 101335
06:00+17всв119681 0.0 101424
09:00+21всв368447 0.0 1016659
12:00+23св357897 0.0 1015733
15:00+25св457182 0.6 10111127
18:00+23св138523 1.7 101175
21:00+19всв229013 1.8 101323
1 марта, пн
пн100:00+19в119311 0.1 101423
03:00+18св229639 0.2 101363
06:00+17св1297100 0.0 101434
09:00+21всв4686100 0.0 1015702
12:00+24всв3473100 0.1 1014908
15:00+26всв236790 1.0 10111207
18:00+23всв248866 2.1 1011131
21:00+20св119283 2.5 101323
2 марта, вт
вт200:00+19всв119483 0.0 101523
03:00+18св119691 0.0 101423
06:00+17св119699 0.0 101623
09:00+21св358582 0.0 1017594
12:00+25св456581 0.0 10161205
15:00+26св456163 0.0 10131406
18:00+23в35780 0.0 1012113
21:00+19св118918 0.0 101523
3 марта, ср
ср300:00+18ссз1192100 0.0 101723
03:00+17з009486 0.0 101623
06:00+17вюв0195100 0.0 101723
09:00+22св238184 0.0 1018503
12:00+26св456964 0.1 10171149
15:00+27св456435 0.3 10141229
18:00+24св227947 0.8 101332
21:00+20сз119072 2.8 101623